Theta_e
353 352 352 353 353 352 353 353 354 354 354 353 354 354 353 353 354 354 353 353 351 350 351 351 352 351 349 351 353 352 352 352 349 349 351 354 352 346 345 344 343 343 343 343 345 345 345 346 344 344 344 344 344 343 342 340 337 333 328 325 322 321 322 323 326 328 330 331 332 332 333 332 333 333
353 353 352 353 353 354 354 354 354 354 354 355 355 355 354 352 353 354 354 354 353 351 351 352 353 352 351 353 354 354 355 352 349 350 353 354 354 349 346 345 344 343 343 344 344 344 345 346 346 345 344 343 343 344 344 344 342 340 337 334 331 327 324 322 322 322 324 326 327 328 330 331 331 332
354 354 353 353 353 353 354 354 354 355 355 356 355 355 355 354 352 352 353 354 354 352 351 352 352 352 352 352 354 353 355 353 349 350 354 354 350 348 346 345 344 343 344 345 345 345 345 346 346 347 346 346 344 343 343 344 344 344 343 341 338 336 333 331 329 326 324 323 323 322 323 323 324 325
354 355 354 352 352 353 354 354 354 354 355 356 356 355 356 355 354 354 354 355 356 353 353 354 352 352 352 352 353 352 353 354 350 348 352 352 347 347 348 346 345 344 344 346 347 347 347 346 347 346 347 347 346 345 344 343 343 345 345 345 343 342 341 340 338 336 334 331 328 326 324 323 322 322
354 354 352 351 353 354 355 355 355 354 353 353 354 353 354 355 355 356 356 356 356 355 354 354 353 352 352 353 353 353 353 356 353 350 354 353 351 351 351 350 349 347 345 346 348 349 348 348 348 347 347 347 347 347 346 344 344 344 344 345 345 345 345 345 345 343 341 339 337 334 332 331 329 328
353 354 353 353 355 355 354 354 353 353 352 352 351 352 352 353 354 355 355 354 354 355 354 354 353 352 353 353 354 354 354 354 352 352 355 355 354 353 353 352 351 350 348 347 347 348 349 348 348 348 347 347 346 346 346 346 344 344 343 344 344 345 345 346 347 346 345 344 343 341 339 338 336 335
354 355 355 355 354 352 351 350 349 348 348 349 351 352 351 353 353 354 354 353 352 354 356 355 354 353 353 353 354 355 355 354 353 352 353 353 353 352 352 352 351 351 351 350 348 348 349 349 349 348 347 347 346 346 346 346 345 344 344 344 344 344 345 345 345 346 346 346 346 345 344 343 343 342
353 353 353 353 351 349 349 348 348 347 346 346 350 353 353 354 354 355 356 355 354 355 356 356 355 354 353 353 354 355 355 355 354 353 353 353 352 352 352 351 350 351 352 351 350 349 349 349 349 348 348 347 346 345 346 346 346 346 346 346 345 345 345 345 345 345 345 346 346 346 347 347 347 346
353 350 349 349 349 349 349 349 349 349 348 347 350 354 355 355 356 356 356 354 354 353 353 354 355 355 354 353 354 354 354 354 353 354 354 354 353 352 352 351 349 351 351 350 349 349 350 350 350 349 349 348 347 346 345 346 346 347 347 347 347 346 345 345 345 346 346 346 347 347 347 348 348 348
351 349 347 348 349 350 350 350 350 349 350 349 348 351 353 355 356 356 355 354 353 351 351 353 354 354 353 353 354 355 354 353 354 354 354 353 353 354 353 352 350 351 351 351 349 347 347 349 349 350 350 349 349 347 346 346 346 347 348 348 348 348 347 344 344 345 346 347 348 349 349 349 350 350
350 350 349 349 349 350 350 350 350 350 350 350 349 350 353 356 356 355 355 356 353 351 353 354 354 353 350 350 352 353 351 350 351 353 353 353 353 354 354 354 352 351 351 351 351 348 347 345 345 346 347 348 349 348 347 346 345 347 347 349 349 350 349 347 345 343 342 343 345 347 348 349 350 350
350 350 349 349 350 349 348 348 350 350 351 351 351 353 355 355 354 353 352 353 351 351 353 354 354 352 349 348 349 349 349 348 349 353 353 354 354 354 354 355 354 353 351 351 351 351 350 348 345 344 342 342 344 346 347 347 346 346 347 348 350 350 351 350 349 347 344 342 340 340 342 344 345 346
350 350 349 349 349 348 347 347 348 349 350 351 352 355 354 353 351 350 350 351 350 350 352 352 351 351 350 350 350 349 349 350 350 352 353 354 354 353 354 355 352 349 348 350 351 351 353 352 352 350 347 345 343 343 344 346 346 346 347 348 349 350 351 351 351 351 350 347 344 340 338 338 339 340
350 349 348 348 348 348 348 347 348 348 349 350 351 352 352 352 350 349 350 351 351 351 352 352 351 351 352 353 352 350 351 349 348 349 351 352 353 353 353 353 351 346 346 348 350 350 350 352 353 352 352 350 348 346 346 346 346 347 348 348 350 351 351 351 351 351 352 351 349 346 342 340 340 340
350 349 348 348 347 348 348 347 348 349 348 349 349 350 351 350 350 350 350 351 352 353 353 353 352 352 352 353 353 352 351 350 349 348 349 350 350 351 352 352 352 349 346 346 347 346 348 350 352 353 352 352 351 350 350 349 348 348 348 349 350 351 351 351 351 351 351 351 351 349 347 344 342 341
350 349 348 347 346 347 349 348 347 349 348 349 349 350 350 349 349 349 348 349 351 352 353 353 352 352 353 353 352 351 351 349 348 348 348 347 347 347 349 350 353 352 349 346 345 345 346 351 353 352 352 352 351 350 349 348 347 347 347 347 347 348 349 349 349 349 350 350 350 351 350 348 344 342
350 350 349 349 349 350 349 348 348 349 348 349 349 349 349 349 348 348 348 348 349 350 351 352 352 352 352 352 351 350 348 347 346 346 346 347 346 346 346 348 350 350 348 347 346 346 348 351 351 350 351 351 350 350 349 347 346 346 346 346 346 346 346 347 347 347 347 348 349 349 350 350 348 345
351 352 352 351 352 352 349 347 348 349 348 349 351 351 351 350 349 348 348 349 349 349 350 351 351 351 350 349 350 349 348 347 347 347 347 347 346 345 346 346 347 347 346 347 348 347 349 349 348 348 348 348 349 349 348 347 347 346 346 346 346 346 346 346 346 347 346 347 347 348 348 349 349 348
350 352 351 351 352 352 350 348 348 349 350 351 352 352 352 351 350 349 349 349 349 349 349 349 348 348 348 348 348 347 347 348 348 347 347 346 346 345 345 345 347 346 346 346 347 347 347 347 346 347 347 347 348 348 347 346 346 346 346 346 346 345 345 345 346 346 346 346 346 347 347 348 349 349
350 350 350 350 351 351 350 349 348 349 349 349 350 351 351 350 349 349 348 347 347 347 347 347 348 348 347 347 347 346 347 347 345 345 345 345 346 346 346 346 347 346 346 346 346 345 344 344 344 345 346 346 346 347 346 345 345 345 345 345 345 345 344 345 345 345 346 346 347 347 346 347 348 349
350 350 350 349 350 350 350 349 348 348 349 348 349 351 350 348 347 346 345 344 345 345 345 345 346 346 346 345 345 345 344 342 341 341 342 343 344 344 345 346 345 345 344 343 343 342 342 342 342 342 343 343 344 344 344 345 345 344 344 344 343 342 342 342 342 343 343 344 345 346 346 347 348 349
349 349 349 348 348 348 348 347 347 348 348 348 349 349 348 347 346 345 344 343 343 343 343 342 342 342 341 341 341 340 339 339 339 338 340 341 341 342 343 343 342 343 342 341 340 339 340 340 340 339 340 341 343 344 344 344 342 341 341 341 341 340 339 339 339 339 340 341 341 342 344 345 346 346
348 347 347 347 346 346 346 346 347 347 346 346 347 347 345 344 344 343 343 342 341 341 340 339 338 337 338 337 337 337 337 337 338 338 339 340 340 340 340 339 340 340 339 338 337 336 337 337 336 337 338 340 340 341 341 340 339 338 338 337 337 337 336 337 337 337 338 339 339 339 340 341 342 341
346 345 345 345 345 345 345 345 346 345 343 344 345 344 343 343 342 341 340 339 339 338 337 337 336 336 337 336 336 336 336 336 336 336 336 336 336 336 336 335 336 334 334 333 332 333 333 333 333 334 336 338 339 338 337 337 336 335 335 334 333 333 334 334 335 336 336 335 336 336 337 338 338 336
344 343 343 342 342 343 344 343 343 341 340 341 342 341 340 339 337 336 335 335 334 335 335 335 335 334 334 334 333 333 333 333 333 333 333 333 333 333 333 332 332 331 330 330 330 330 331 330 330 331 333 335 336 334 333 333 332 331 332 332 331 330 331 333 333 334 334 333 334 334 334 335 335 334
341 340 339 338 338 339 339 338 338 337 337 336 336 334 332 332 331 331 331 332 332 333 333 333 333 333 332 331 331 331 331 330 331 331 331 331 331 331 330 330 330 329 329 329 329 329 329 328 328 329 330 331 332 331 330 331 330 329 329 329 329 328 328 330 332 332 332 332 333 333 333 333 333 332
337 335 334 333 332 333 333 333 332 332 331 330 329 328 329 330 330 331 332 332 332 331 331 330 329 328 327 326 326 326 327 327 328 328 329 329 329 329 329 329 329 328 328 328 328 328 328 327 326 326 327 327 328 328 328 328 327 327 327 328 329 328 326 328 330 331 331 330 331 331 331 330 330 330
332 331 330 329 329 329 329 329 328 328 327 327 328 330 330 331 331 330 329 328 326 324 323 322 321 320 320 320 321 322 323 323 323 322 323 324 325 326 326 326 327 327 327 328 327 327 326 326 326 325 324 324 325 325 324 324 324 324 324 325 327 326 325 325 327 329 330 329 329 329 329 329 328 328
327 327 327 327 327 327 328 327 327 328 328 329 329 328 328 327 325 323 321 319 317 316 316 316 316 317 317 317 318 317 317 317 317 316 317 319 322 323 323 323 324 324 325 325 324 324 324 323 323 322 321 320 321 321 321 322 323 323 322 323 324 323 322 323 325 326 328 329 329 328 328 328 327 326
325 326 326 326 325 326 326 326 326 326 326 325 324 322 320 318 316 315 314 313 313 312 312 313 313 314 313 313 313 313 312 313 313 313 316 320 322 323 323 323 323 321 320 320 319 318 317 316 317 317 318 318 317 318 319 320 322 322 322 322 323 323 322 322 323 323 324 326 327 328 328 327 326 325
325 325 325 325 325 325 325 324 323 322 320 318 316 314 313 312 311 311 310 310 310 310 311 311 311 311 311 311 312 312 311 311 311 311 314 318 320 321 322 322 322 321 320 319 318 315 314 316 314 313 314 316 316 317 319 321 320 321 321 321 322 323 322 322 323 322 321 323 324 325 326 326 325 324
324 325 325 324 324 323 321 319 317 315 314 313 312 311 310 310 310 310 309 310 310 310 310 310 310 310 310 310 313 314 312 310 310 310 311 312 315 318 321 321 321 320 320 320 319 316 317 319 318 315 315 315 315 316 318 319 320 320 320 319 320 321 321 321 322 321 320 321 322 322 323 324 324 323
322 323 322 321 320 319 317 316 314 313 311 311 310 310 310 310 310 310 310 310 310 309 309 309 309 311 311 311 313 315 315 313 311 309 309 309 311 316 319 319 318 318 318 318 317 316 316 318 319 318 318 317 316 316 316 316 316 318 319 318 319 320 320 320 321 320 319 320 321 320 320 320 320 320
319 320 321 320 319 319 318 317 316 314 312 312 311 311 310 310 310 309 309 309 309 308 308 308 308 309 312 312 313 315 317 317 316 313 311 311 313 316 318 317 316 316 316 316 315 315 315 316 317 318 319 319 318 318 317 314 313 313 317 318 317 318 319 319 319 319 318 318 319 319 318 316 316 315
319 320 320 319 318 318 317 316 316 315 314 314 313 312 310 308 308 308 308 308 308 307 307 307 306 307 308 309 310 311 313 316 317 315 314 314 315 316 316 315 315 315 315 315 314 313 313 315 316 317 318 319 319 319 317 314 311 310 313 317 317 316 317 318 318 317 317 317 318 318 317 317 316 315
318 318 317 316 315 315 314 314 314 314 313 313 312 311 310 309 309 309 309 309 308 307 308 307 306 306 305 305 306 308 309 312 315 314 313 313 313 314 315 314 314 314 314 314 312 310 310 312 313 314 315 316 318 318 316 314 312 310 310 314 316 315 315 316 317 316 316 316 316 316 316 316 316 316
316 316 315 314 314 314 313 312 312 312 312 311 311 311 310 310 309 309 309 309 309 308 308 307 306 305 305 306 309 310 311 313 314 314 314 313 313 313 314 313 313 313 313 312 311 309 309 310 312 312 314 315 316 316 314 313 312 311 308 310 312 313 313 314 315 315 315 315 315 315 315 315 316 315
317 316 315 314 314 314 313 312 312 312 312 312 311 311 311 311 310 310 310 310 309 309 308 307 305 305 306 309 312 313 312 313 314 314 314 313 312 312 312 312 312 312 312 312 311 310 309 309 309 310 312 314 314 314 314 312 312 311 309 308 309 310 310 311 313 313 313 313 313 314 314 314 314 313
318 317 315 314 314 313 312 312 311 312 312 312 312 312 311 311 310 310 310 310 310 309 308 306 305 306 307 309 312 313 313 312 312 313 312 311 311 310 311 311 311 311 311 311 311 310 309 309 308 308 310 312 312 312 312 312 311 311 310 309 308 308 307 308 309 310 310 310 310 311 312 312 312 312
316 316 314 313 313 312 312 312 312 312 312 312 312 312 312 311 311 311 311 311 310 309 307 306 306 307 308 309 310 312 312 311 311 311 311 311 310 309 308 310 310 311 311 311 310 310 309 308 306 307 309 311 311 311 312 312 312 311 310 309 308 307 307 307 307 307 308 308 308 309 310 311 311 311
315 314 313 313 312 312 312 312 313 313 313 313 313 313 312 312 312 312 311 311 310 308 308 308 308 309 309 310 310 310 311 310 310 310 310 310 310 309 308 309 310 310 310 310 309 309 308 307 306 307 309 309 310 310 311 312 311 310 309 308 308 307 306 306 306 306 306 306 306 307 307 308 308 309
314 314 313 312 312 313 312 313 313 313 313 313 313 312 312 311 311 311 310 309 308 308 308 309 309 310 310 310 309 309 309 309 309 309 308 308 309 308 308 308 308 308 308 309 308 308 307 307 306 307 308 308 308 309 309 309 308 308 308 307 307 306 306 306 305 304 304 305 305 305 305 305 306 307
314 313 312 312 312 312 313 313 313 313 313 312 312 311 311 310 310 310 309 309 308 308 308 308 309 310 310 309 309 308 308 308 308 308 308 307 307 307 307 307 307 307 307 307 307 307 306 306 306 307 307 307 307 307 307 307 307 307 306 306 306 306 305 305 305 304 304 304 304 304 303 303 303 303
314 313 313 312 312 312 312 312 312 312 312 312 311 311 310 310 310 310 309 308 308 307 307 308 309 309 308 308 308 307 307 307 307 307 307 307 306 306 306 306 306 306 306 306 306 306 306 306 306 306 306 306 305 305 306 305 305 305 305 305 305 305 305 305 305 304 304 305 305 304 303 302 302 301
314 314 314 314 313 313 312 312 312 312 311 311 310 310 310 310 310 309 308 308 307 306 306 307 307 308 307 306 307 306 306 306 306 306 306 306 306 305 305 304 304 305 305 305 305 305 305 305 305 305 305 305 304 304 304 304 304 304 304 304 304 304 304 304 304 304 304 305 305 304 302 302 302 301
Wind_Speed
8 8 8 7 7 7 7 7 6 7 7 6 6 6 6 7 8 8 8 6 5 6 5 5 7 7 7 5 3 2 1 4 4 3 4 5 6 4 3 4 3 1 2 1 1 2 3 3 2 1 2 4 5 5 5 5 5 5 5 6 7 8 9 10 11 12 13 15 16 17 17 18 18 19
8 7 7 7 7 7 7 7 6 7 8 7 6 7 7 7 7 8 9 7 5 5 6 6 6 7 7 4 3 3 3 5 4 3 5 6 8 7 4 4 4 3 3 2 2 1 1 2 2 2 2 2 4 5 7 8 8 8 7 7 7 8 9 9 10 12 13 14 16 17 18 18 19 19
8 8 8 8 7 7 7 8 7 7 8 7 7 7 8 9 9 9 10 10 7 6 7 7 5 6 6 5 4 2 4 8 8 3 5 7 9 8 5 5 5 4 4 4 3 3 2 2 2 2 3 3 3 4 6 8 9 11 11 10 10 10 9 10 10 11 12 14 15 16 17 18 18 19
8 8 8 8 8 7 7 8 8 8 8 8 7 8 8 9 10 10 10 11 10 8 8 8 7 5 6 6 6 3 3 8 9 5 4 7 7 7 7 7 6 6 6 6 5 5 4 4 4 4 3 3 4 4 4 6 8 10 12 13 13 13 12 12 11 11 12 12 13 14 15 16 17 17
8 9 9 9 7 7 7 8 8 8 8 8 8 8 8 9 9 9 9 10 11 10 8 8 8 7 6 6 6 5 3 5 7 5 4 6 6 6 8 9 9 8 8 8 7 7 7 6 6 6 6 6 5 5 5 6 6 8 11 12 13 15 15 15 15 14 14 14 14 14 14 15 15 16
9 9 9 8 8 8 9 9 9 8 8 8 9 9 9 9 9 9 11 11 11 11 9 8 8 8 7 7 6 5 5 6 7 5 5 6 6 6 8 10 11 11 9 10 10 9 9 9 8 8 7 7 7 6 6 6 6 7 9 10 12 14 15 16 16 17 17 17 17 16 16 16 16 16
8 8 9 10 10 10 11 11 11 12 10 9 10 11 10 10 10 10 13 14 12 11 10 10 9 8 9 8 6 6 6 6 7 6 5 7 7 7 8 8 12 13 13 12 12 12 12 12 11 10 9 9 8 8 8 7 7 7 8 9 11 12 14 15 16 17 17 18 19 19 19 19 19 19
10 11 10 12 14 14 14 14 14 15 14 12 11 11 11 11 11 10 11 12 12 12 11 11 10 9 10 9 7 7 7 6 8 7 7 7 7 8 9 8 11 14 15 15 15 14 14 14 14 14 13 12 11 10 10 9 8 8 8 8 9 11 13 14 15 16 17 18 19 20 20 21 21 22
14 15 13 14 16 17 17 16 16 16 15 14 12 11 10 10 10 10 11 11 13 14 13 12 11 9 9 8 8 7 7 7 8 8 8 7 7 8 8 8 11 14 14 15 16 16 16 16 16 16 16 15 14 13 12 12 11 10 9 9 9 10 11 13 14 15 16 17 18 19 20 21 21 22
15 15 14 16 17 17 17 16 17 16 15 15 15 13 12 11 11 11 11 12 13 14 13 11 10 9 8 8 8 7 7 6 7 7 7 7 7 7 7 7 9 10 10 11 13 14 16 17 17 17 17 17 16 15 15 14 14 13 12 11 10 10 10 12 13 15 16 17 17 19 19 20 20 21
13 12 14 16 15 15 15 15 16 16 15 16 16 14 12 10 11 11 10 11 12 13 10 9 10 10 9 9 8 8 8 7 6 6 7 7 6 7 8 8 8 8 9 10 11 12 14 16 16 17 18 18 18 18 17 17 16 16 14 13 12 12 12 12 13 14 15 16 18 19 20 21 21 21
12 13 14 14 13 14 14 14 15 14 15 15 14 12 11 11 12 12 12 13 14 12 9 9 10 10 10 10 9 9 10 9 6 6 7 8 7 8 8 8 7 8 8 9 9 10 12 13 13 15 16 17 17 18 18 19 18 18 17 16 15 14 14 14 14 14 15 16 17 18 20 21 22 23
13 14 14 13 13 14 14 14 14 14 14 14 12 11 12 13 13 13 13 14 15 13 11 11 10 10 10 10 9 9 9 8 7 7 7 8 7 7 8 8 8 9 8 6 7 8 8 10 11 12 14 14 15 16 18 19 19 19 18 18 17 17 17 17 17 16 17 16 17 18 19 20 21 21
14 15 15 15 13 13 13 13 13 13 14 13 13 13 14 14 13 12 12 11 12 12 11 11 10 10 9 9 9 10 9 9 10 9 7 7 8 8 8 8 9 10 9 7 8 8 9 10 11 11 12 13 14 15 15 16 16 16 18 19 19 19 20 20 20 20 19 19 18 19 20 20 21 20
14 16 16 15 14 14 14 14 13 13 14 13 13 14 14 14 13 12 11 10 10 10 10 10 10 9 9 8 8 8 7 8 9 9 8 8 10 10 9 9 9 10 10 9 9 10 10 10 11 11 11 11 13 13 14 14 12 13 16 18 20 22 22 23 23 23 23 22 21 22 22 23 23 22
15 17 17 16 16 16 15 14 14 14 13 13 13 14 14 14 12 12 12 12 11 10 10 10 10 9 8 7 6 6 6 7 9 10 11 11 11 11 11 10 8 8 11 12 12 13 11 9 11 11 10 10 13 15 16 15 14 15 18 20 21 22 24 24 26 26 26 25 25 25 25 25 25 25
17 17 16 15 14 15 15 16 14 14 14 13 13 13 13 12 12 12 12 12 12 11 10 10 9 8 7 6 5 7 8 9 11 12 11 12 13 13 13 12 11 10 12 13 14 13 10 9 12 13 11 11 13 14 14 15 16 17 19 22 23 24 25 26 27 27 27 27 27 28 28 28 28 28
16 15 13 12 12 13 16 17 15 14 14 12 11 11 11 11 11 11 12 12 11 9 9 9 8 7 7 7 7 9 10 10 10 11 11 11 13 13 13 14 13 12 11 11 11 11 8 8 12 13 13 13 13 14 13 14 16 19 19 20 22 23 25 26 27 28 28 28 29 29 30 30 30 30
17 15 15 15 13 13 15 16 15 14 12 11 11 11 11 10 10 11 12 11 10 10 9 9 9 8 9 9 10 11 11 10 10 11 12 14 15 14 14 14 12 11 11 10 11 12 10 11 12 13 13 12 12 14 15 14 16 19 20 20 20 21 23 25 26 27 28 29 30 31 31 31 31 31
16 15 15 15 13 12 14 15 15 14 13 12 12 12 13 13 11 10 9 6 6 8 7 6 7 8 9 10 11 12 12 12 12 12 11 12 12 12 12 10 9 10 12 11 13 16 15 14 14 13 13 12 12 14 16 15 17 19 20 19 20 21 22 23 24 25 26 27 28 30 31 31 31 31
13 13 14 14 12 12 13 14 14 14 13 12 11 11 12 12 9 6 4 4 4 5 5 5 7 8 9 10 12 13 13 13 13 11 9 9 8 8 8 7 7 11 14 14 15 16 15 14 15 15 14 13 14 16 14 13 15 18 18 19 19 20 21 22 23 24 25 25 26 28 29 30 30 29
15 16 17 16 14 13 13 13 14 13 11 10 10 10 8 5 3 1 2 4 3 4 4 4 5 6 7 8 9 10 11 11 10 9 8 8 7 7 8 8 8 10 13 14 14 13 12 11 14 15 13 12 13 14 12 11 14 16 16 18 19 19 19 20 20 21 22 23 24 25 26 27 27 27
16 16 15 14 13 12 12 13 13 11 7 6 8 6 3 2 3 4 5 4 2 2 3 3 3 4 5 6 7 7 8 9 8 8 7 7 7 6 7 8 7 6 8 11 12 9 9 9 10 11 10 9 10 12 12 13 15 14 14 15 16 15 15 16 16 17 19 20 22 22 23 22 21 21
11 10 9 9 10 9 8 7 6 3 2 5 6 3 2 4 5 4 3 3 2 2 2 3 4 5 6 7 7 8 8 8 8 8 7 7 7 6 6 6 6 5 6 10 11 9 9 9 9 8 7 7 9 10 11 12 12 12 11 12 12 12 11 12 13 13 14 15 14 14 14 13 12 13
3 2 2 2 2 2 3 4 3 4 5 6 5 4 3 4 5 4 3 3 3 4 5 6 7 8 8 8 8 8 9 9 10 10 10 9 8 7 7 7 6 6 8 10 11 11 10 11 11 9 6 6 8 9 8 8 10 10 10 9 10 12 11 11 11 10 9 8 6 5 5 5 7 10
5 6 7 9 8 8 8 8 7 7 8 8 8 8 7 7 7 6 7 7 7 6 7 7 8 8 8 9 9 10 10 11 11 10 10 10 9 9 9 9 8 8 9 9 10 11 10 11 12 11 8 7 8 8 7 7 9 11 11 10 11 12 13 13 12 10 9 8 8 7 6 5 5 7
12 13 13 13 13 12 11 11 10 10 10 11 12 12 11 10 10 10 10 9 8 8 8 8 8 9 9 10 11 11 11 11 10 9 9 9 9 9 10 10 10 9 9 9 10 11 10 10 11 12 11 9 9 9 9 9 10 12 12 11 11 14 16 16 14 12 10 9 9 9 8 7 6 6
17 17 17 16 15 14 13 12 12 13 13 14 15 14 14 13 12 12 11 10 10 10 10 10 11 12 12 12 13 12 11 11 10 10 9 8 8 9 10 10 9 8 8 9 10 11 11 10 10 11 12 12 11 10 11 11 12 13 12 10 10 13 15 16 16 14 12 10 9 8 8 7 6 5
19 18 18 17 16 15 15 15 15 16 16 16 16 15 14 13 13 12 12 12 12 13 14 14 15 15 14 13 13 12 11 11 11 10 11 10 8 8 9 9 8 7 7 7 9 10 10 10 10 10 11 12 11 11 12 11 11 12 11 10 9 11 13 14 15 15 14 12 11 8 7 6 5 4
20 19 18 17 16 16 16 16 17 17 16 16 15 15 15 14 14 13 13 13 14 15 15 15 15 14 14 13 12 12 12 12 11 11 11 10 8 7 7 7 7 8 8 7 7 7 8 9 9 9 10 11 12 12 11 11 10 10 10 10 9 9 11 12 13 14 13 12 11 10 8 7 5 3
20 19 18 18 18 17 17 16 17 16 16 15 15 15 15 15 15 14 14 14 15 15 15 15 14 14 13 13 13 13 13 12 12 11 10 9 8 7 7 7 6 7 9 9 8 8 8 7 7 9 10 10 11 10 9 10 11 11 11 12 11 9 10 11 12 13 12 11 11 10 9 6 4 4
20 20 19 18 18 18 18 18 17 16 16 15 15 15 15 15 16 16 16 16 16 16 15 15 14 14 14 13 13 12 12 13 13 12 11 9 9 8 7 7 6 6 8 8 9 10 8 6 7 10 11 11 11 11 10 9 10 11 11 12 11 10 10 10 10 10 10 10 9 10 10 8 6 5
21 20 19 18 18 18 18 18 17 16 16 15 15 16 17 17 17 16 16 16 16 16 15 15 14 14 13 13 12 11 11 11 12 11 11 10 10 9 7 7 7 7 7 7 8 9 9 7 8 11 12 12 13 13 11 10 10 10 11 12 12 11 11 10 9 9 9 8 8 8 10 10 9 7
22 20 18 16 16 15 15 15 15 15 16 16 16 16 17 17 16 15 15 16 16 15 15 15 15 13 12 12 11 10 9 9 9 10 10 10 9 9 7 7 8 8 8 8 9 10 10 9 9 10 11 13 13 11 10 11 11 8 8 10 11 11 11 10 9 10 10 9 8 8 9 11 12 10
20 18 17 16 15 15 14 15 14 14 15 15 15 15 16 16 16 15 15 16 16 16 16 16 16 15 13 12 11 10 9 8 7 9 9 9 8 8 7 7 8 9 9 9 10 11 10 10 10 9 9 10 11 8 8 15 15 8 7 10 11 10 10 10 9 10 10 9 9 8 8 10 11 9
18 17 17 17 16 16 15 15 15 14 15 15 15 15 15 16 16 14 14 15 15 16 16 16 16 16 14 13 12 11 10 9 8 8 9 9 8 8 8 8 9 9 9 10 11 11 11 10 11 10 9 8 8 6 8 17 20 12 7 10 12 11 11 11 10 9 9 9 9 9 9 9 9 6
18 17 17 16 16 15 15 16 15 15 15 14 14 15 15 15 15 15 15 16 16 17 17 17 16 15 14 13 12 11 10 9 9 9 10 10 9 9 9 9 10 10 10 10 11 12 11 10 10 10 10 9 9 7 7 13 19 16 10 11 13 13 13 12 11 10 9 9 10 10 8 8 7 7
16 15 15 16 15 15 15 15 14 14 14 14 14 14 14 14 15 15 16 17 17 17 17 16 15 13 12 11 10 9 9 9 8 8 9 9 9 10 9 9 10 9 9 9 10 11 11 11 10 10 9 9 9 9 9 11 14 16 16 15 14 13 12 12 12 11 10 10 11 11 10 9 7 8
14 14 15 15 15 15 14 14 14 14 14 14 14 13 14 14 15 16 17 18 18 18 17 15 14 12 10 9 8 8 8 8 8 8 8 9 9 9 9 9 9 9 8 9 9 10 11 11 10 9 9 9 9 9 9 9 9 12 17 19 17 14 13 12 12 12 12 12 12 11 11 11 10 10
13 14 14 14 14 14 14 13 13 13 12 13 12 12 12 13 14 15 16 17 19 18 16 14 12 10 8 7 7 7 7 8 8 8 8 8 9 10 10 9 9 9 9 9 9 10 11 12 11 10 10 9 9 9 8 6 5 8 14 19 19 18 15 13 13 13 13 14 14 13 12 11 11 11
13 13 13 13 13 13 12 12 11 11 11 11 11 11 12 13 15 16 17 20 22 19 15 12 10 9 8 8 7 7 7 7 8 8 8 8 8 10 11 10 9 9 10 9 10 11 12 12 12 12 11 10 9 9 8 7 7 9 12 16 20 20 18 16 15 14 13 13 13 13 12 12 12 12
12 12 12 12 11 10 10 10 10 10 10 9 10 11 12 14 17 18 18 21 23 19 13 10 9 8 8 8 8 7 7 7 8 8 9 8 8 9 10 10 9 10 10 10 10 11 12 13 13 12 10 10 10 9 8 7 9 10 11 12 16 19 19 18 17 16 15 15 13 12 14 14 12 11
11 11 10 9 9 8 7 7 8 8 8 9 10 11 10 11 14 16 17 19 19 17 12 9 8 7 7 7 7 7 7 7 8 8 8 9 9 9 9 10 10 10 10 10 10 10 11 12 12 11 10 10 11 10 9 8 9 11 11 11 13 15 17 18 19 19 19 17 14 15 19 19 15 12
10 9 8 7 6 6 5 6 7 8 8 9 10 11 11 11 13 15 17 18 18 15 12 8 7 6 6 5 6 6 7 7 8 8 8 9 9 9 9 10 10 10 10 10 10 11 11 11 11 11 11 11 11 10 9 10 10 11 12 12 13 13 13 15 17 18 18 17 16 18 22 23 20 17
9 8 6 4 4 4 4 5 6 7 8 8 8 9 11 11 12 12 15 17 17 14 10 7 5 5 5 6 6 7 7 8 8 8 8 9 9 9 10 10 10 10 10 11 11 11 12 12 11 11 11 11 11 11 10 10 10 11 11 12 13 13 13 13 13 13 13 14 16 20 22 23 22 20
Wind_Direction
267 269 269 273 279 282 279 281 287 286 290 294 292 292 295 299 306 315 330 335 328 335 336 336 337 330 344 1 328 331 283 258 275 267 244 241 251 262 257 253 262 259 244 238 23 35 43 36 24 290 242 225 223 222 218 216 214 214 218 221 224 226 227 229 230 230 231 231 230 229 228 228 230 232
264 265 266 272 276 279 281 283 286 284 286 286 282 281 286 291 294 299 310 314 310 314 321 327 327 324 339 347 314 312 274 276 294 260 245 241 243 256 265 256 255 237 216 223 251 279 11 20 22 10 331 273 248 236 231 229 226 223 223 221 223 226 227 228 229 229 231 233 236 238 239 240 241 242
262 262 265 271 276 280 282 285 286 282 282 284 282 281 284 290 296 297 297 296 296 305 307 308 309 311 321 318 300 300 274 286 299 275 241 241 240 248 256 251 251 243 229 231 246 260 272 299 331 350 349 332 305 268 249 243 237 234 231 228 225 224 223 225 227 229 231 232 234 237 240 242 245 246
261 265 270 273 277 281 283 287 292 291 288 288 287 289 290 294 301 304 298 294 295 299 300 302 302 297 303 306 295 283 273 289 300 300 258 254 249 247 252 253 251 245 243 245 253 263 268 275 290 303 311 316 318 302 279 263 251 245 242 239 234 230 228 227 229 231 233 235 236 238 239 242 244 246
263 268 274 277 278 283 286 287 291 294 293 291 289 291 292 293 297 298 295 295 294 296 299 298 296 292 292 296 292 280 258 273 291 301 282 276 268 252 256 265 266 258 251 250 255 264 268 272 283 291 293 295 301 303 295 283 267 256 253 250 246 243 240 238 239 239 238 239 240 241 242 243 245 248
268 270 276 280 280 279 276 274 279 283 282 284 284 285 286 288 291 288 286 287 288 290 291 285 285 288 283 279 282 278 261 263 277 280 272 276 272 255 256 266 273 274 267 258 257 262 265 268 276 282 285 285 285 291 295 290 279 267 261 256 253 253 251 249 248 246 244 243 242 244 246 247 249 250
274 272 273 273 270 269 268 271 280 282 274 270 274 277 276 277 280 279 279 282 285 285 285 282 282 279 271 268 269 271 270 273 279 279 266 263 264 264 263 265 273 278 278 272 264 261 263 265 268 273 278 278 276 278 283 286 282 275 268 263 257 254 253 252 251 250 249 248 246 246 247 249 250 252
267 260 260 267 272 277 278 278 281 280 274 267 266 269 271 271 274 274 275 281 285 283 282 282 279 271 264 263 260 262 268 270 272 274 267 260 260 262 263 265 268 270 272 272 268 264 265 265 265 268 271 273 273 271 272 274 274 271 271 269 265 260 255 253 252 251 250 249 249 249 250 251 253 254
261 258 259 266 274 280 283 283 283 281 275 268 264 264 267 269 270 271 273 277 279 282 282 281 280 275 267 264 262 261 268 270 270 273 271 265 261 260 262 264 267 271 275 273 269 266 265 265 265 266 265 266 267 267 267 267 267 267 269 270 270 267 262 258 255 254 252 250 250 249 250 251 252 254
259 262 264 265 268 275 281 284 285 282 273 267 263 262 263 263 264 270 276 277 279 284 286 283 282 277 267 267 269 265 269 277 278 279 275 267 262 265 267 263 267 280 288 279 271 269 266 265 264 264 264 263 262 261 261 262 263 265 268 270 272 273 270 266 261 258 256 255 253 252 252 252 252 253
263 261 260 264 270 275 279 280 281 278 271 266 263 260 260 260 262 269 271 270 277 284 284 280 279 275 266 264 265 266 272 278 277 274 274 268 260 263 268 265 266 272 274 274 279 281 278 273 266 263 262 262 261 260 259 258 259 261 263 265 268 272 274 274 270 266 263 261 259 259 258 257 257 258
269 263 260 268 278 282 282 280 279 278 274 270 267 264 261 261 265 272 269 266 273 278 272 267 272 276 276 272 268 269 274 278 276 268 269 271 268 268 272 272 272 274 274 279 285 288 290 289 282 274 269 265 262 260 259 258 256 257 260 262 264 267 271 272 273 273 271 269 267 265 263 261 260 260
273 271 270 274 281 283 283 279 278 279 276 270 266 264 265 267 273 277 273 268 271 272 268 268 271 275 279 280 278 276 275 276 276 272 271 274 274 275 276 273 274 280 285 283 274 275 286 291 288 286 283 278 273 267 261 259 259 258 260 263 266 267 268 269 270 271 272 273 274 272 269 266 265 264
274 276 276 275 278 280 279 278 279 281 279 271 262 261 264 268 271 273 270 266 267 268 267 269 270 270 272 274 277 282 281 276 277 285 292 292 290 287 283 279 281 284 286 283 277 279 284 282 280 281 281 282 287 286 273 263 264 267 265 264 264 266 267 268 269 269 270 269 269 269 268 266 267 267
270 273 273 271 276 280 280 279 279 280 282 276 267 263 263 264 266 267 264 259 260 264 266 264 263 266 270 271 274 283 290 286 286 292 290 287 291 293 291 292 293 290 287 287 289 294 297 290 283 283 281 279 281 279 271 267 276 282 273 266 263 264 264 265 266 266 266 265 264 264 264 263 263 263
271 272 273 275 278 281 280 280 279 278 278 275 268 263 261 259 259 260 261 258 254 257 261 260 259 260 265 272 278 281 282 282 281 280 279 283 290 294 295 294 294 296 296 297 298 300 303 299 290 285 285 282 276 271 271 277 284 283 275 268 265 264 264 264 264 265 265 266 266 265 264 263 261 261
273 273 273 272 270 272 278 282 279 275 274 271 263 259 257 255 253 254 256 255 251 250 251 253 255 257 260 270 284 283 280 280 281 282 286 290 291 293 294 290 288 294 301 302 300 296 297 295 286 279 277 284 287 284 281 282 283 280 273 269 266 265 265 265 265 266 267 267 266 266 266 265 263 261
275 273 271 266 261 267 278 282 279 272 271 266 257 252 252 251 253 255 252 246 242 239 238 242 247 254 261 265 271 276 278 281 284 286 288 288 289 292 294 294 296 297 294 293 293 292 297 301 294 289 290 295 299 296 288 286 286 284 279 274 271 269 268 267 267 267 267 266 266 266 266 266 266 265
272 272 274 274 272 270 274 278 278 270 259 249 243 241 239 236 236 242 243 237 229 224 224 233 244 254 265 271 275 279 281 280 281 285 289 291 293 293 293 297 303 300 289 282 280 282 291 298 297 294 289 293 303 300 296 293 290 287 286 284 282 280 277 275 273 271 269 267 266 266 266 267 267 266
275 278 281 281 282 279 274 275 277 269 261 257 248 233 227 229 229 234 241 238 236 236 234 242 257 267 274 277 280 283 283 283 285 288 288 289 294 297 298 301 301 294 289 284 284 290 296 299 298 292 287 292 300 297 296 294 286 285 290 292 292 292 288 284 281 278 275 272 270 268 268 267 267 267
275 276 275 273 275 273 271 275 279 274 268 267 254 232 227 233 237 246 287 324 304 292 292 277 270 272 274 275 281 287 291 293 296 296 289 284 290 295 297 300 304 301 297 294 296 303 308 307 302 299 298 301 299 292 290 291 286 285 289 292 295 296 294 291 289 286 281 277 274 271 269 268 268 267
272 274 276 277 275 271 273 283 285 275 261 250 243 240 241 246 239 189 58 37 8 332 317 301 294 296 295 295 300 304 309 311 313 314 311 307 306 300 295 299 305 302 299 301 306 310 314 315 310 306 306 306 299 290 285 290 299 302 302 301 302 304 302 301 299 293 287 282 277 272 268 267 266 266
280 285 288 290 286 283 285 283 276 269 257 229 226 236 234 153 126 133 136 130 137 272 292 313 340 344 336 336 339 339 340 343 346 347 342 336 332 326 316 315 313 300 299 311 321 325 328 333 333 330 329 323 310 304 299 300 309 315 315 314 315 314 312 308 303 298 293 287 281 275 268 265 268 272
289 291 293 295 292 284 274 262 252 241 156 171 190 207 194 157 144 149 172 181 197 251 321 22 36 33 24 19 20 21 20 21 21 18 12 6 1 356 353 351 350 354 348 344 348 356 357 354 355 356 353 340 329 329 326 317 316 320 322 324 329 329 324 315 308 304 300 294 290 283 274 269 274 285
282 285 289 318 299 223 166 154 148 125 124 147 163 163 150 138 125 114 101 92 81 63 56 57 56 56 53 49 50 49 47 47 45 40 38 37 33 30 34 37 31 26 21 12 9 12 11 9 12 15 15 5 352 350 347 331 328 338 341 338 341 346 345 341 338 336 330 327 333 337 322 304 290 287
124 122 118 110 107 113 117 116 113 110 112 118 119 114 107 102 98 96 91 87 80 73 71 70 69 69 68 64 62 60 56 52 47 44 43 43 43 44 45 45 43 35 28 22 20 22 20 19 23 26 26 17 1 356 358 349 343 351 354 349 349 356 358 356 357 2 3 2 8 13 11 1 328 301
122 119 115 109 106 107 108 110 109 107 109 110 106 102 99 96 93 92 91 92 92 90 89 87 82 77 71 66 62 59 54 49 45 45 44 42 44 45 43 40 36 30 26 20 20 24 25 23 26 30 30 26 16 10 14 13 5 4 5 359 352 356 1 1 3 7 7 3 359 355 352 348 341 328
116 112 109 107 106 107 108 110 111 110 108 104 101 100 98 96 95 95 96 97 97 93 87 81 75 68 62 56 51 47 43 40 40 40 36 35 38 38 35 32 26 19 19 18 16 18 20 20 23 25 23 22 22 20 19 15 10 10 14 10 357 356 2 5 7 9 7 360 350 342 337 332 326 318
108 107 107 106 105 107 109 108 105 102 99 97 97 97 97 97 97 98 96 91 86 79 72 67 62 56 51 48 44 39 35 33 34 35 33 32 31 30 27 26 24 22 21 19 17 15 15 17 20 20 18 17 18 18 17 14 9 7 10 11 3 359 4 8 9 11 12 5 355 342 327 321 319 310
108 108 108 107 106 105 105 102 99 97 97 99 100 99 98 97 93 90 87 81 75 70 65 61 58 53 49 46 43 40 37 35 34 39 41 36 31 31 29 27 26 23 18 17 17 13 14 18 20 18 17 17 16 16 15 14 13 8 6 9 5 357 2 7 6 6 10 11 7 357 338 323 319 309
109 108 107 105 104 103 100 97 97 98 99 99 97 94 92 89 84 80 77 75 73 69 66 63 60 57 52 48 43 38 35 34 32 34 40 38 34 32 31 31 27 16 12 14 11 5 7 14 19 20 19 15 14 15 13 11 12 11 9 11 10 360 1 6 1 356 1 8 11 13 5 349 329 302
113 111 108 107 106 104 101 99 97 98 97 94 92 90 86 84 82 79 74 72 71 68 65 61 58 55 50 48 45 35 30 30 29 27 29 31 33 35 31 28 25 15 12 12 6 4 2 356 356 5 10 14 14 12 10 8 8 8 6 7 9 3 360 3 359 352 356 2 4 12 14 9 0 341
114 109 105 104 102 100 99 97 95 92 91 90 90 90 86 82 80 78 74 70 65 62 59 55 52 49 44 41 40 35 27 23 21 21 22 24 29 35 32 22 19 17 15 9 2 4 5 357 347 346 353 5 7 2 2 4 2 5 3 357 359 2 359 1 2 356 358 4 3 6 12 9 4 359
114 108 103 101 98 96 95 93 91 90 88 85 83 83 83 79 75 73 71 68 61 55 52 48 45 43 38 34 34 32 28 21 12 14 20 24 28 29 26 18 15 15 14 8 2 2 4 5 358 338 331 338 338 337 352 357 350 1 15 359 353 359 358 355 360 360 360 6 5 2 6 2 356 355
113 109 108 106 104 102 98 94 90 88 87 83 78 75 75 73 68 63 61 60 56 50 46 41 37 34 31 28 25 23 25 25 14 10 17 23 26 25 19 15 13 12 11 5 0 1 2 4 4 350 329 318 306 305 350 353 341 352 39 14 354 357 358 351 351 352 353 360 360 352 351 354 355 359
116 115 115 112 110 108 104 100 96 90 86 84 80 74 70 66 62 56 51 50 47 42 38 34 29 25 22 21 20 17 19 21 14 11 14 17 20 21 16 11 9 10 10 2 357 0 4 3 2 360 350 330 309 308 357 354 340 341 33 28 3 357 358 353 347 348 348 350 349 343 340 348 356 359
119 116 115 112 109 106 104 102 99 93 86 81 78 72 66 59 53 47 43 40 37 33 30 27 24 19 17 19 18 15 17 18 14 12 12 11 14 16 12 7 6 6 6 2 359 1 6 5 3 1 355 346 337 339 359 354 338 332 356 22 12 1 0 358 353 353 351 346 345 339 328 330 339 335
114 112 112 111 108 105 103 100 97 92 85 78 72 66 60 54 47 41 36 32 29 28 25 21 18 15 16 20 18 12 14 18 17 16 14 12 13 13 10 6 5 3 3 3 1 3 5 5 5 5 1 355 350 343 341 341 331 324 334 353 1 1 3 2 358 356 351 345 345 338 324 320 326 328
113 113 114 114 111 108 105 100 94 89 83 76 71 63 56 49 41 35 30 24 21 22 20 15 13 12 14 19 20 13 12 18 20 18 15 13 13 12 10 7 3 1 3 3 2 5 8 5 3 6 4 354 345 337 331 330 327 324 329 337 344 351 357 359 357 355 349 344 343 338 329 326 324 326
118 116 116 115 111 106 101 94 88 81 73 68 63 56 51 45 34 26 22 17 15 17 16 11 11 14 14 18 25 21 15 19 21 17 14 12 9 8 11 11 4 1 3 4 3 6 5 1 5 15 9 346 327 319 318 317 319 325 328 331 335 341 348 352 353 349 343 340 340 337 332 328 323 320
118 116 114 111 107 101 94 87 79 71 63 55 46 37 34 29 20 15 13 11 12 15 14 9 13 22 21 20 27 27 19 19 20 15 13 12 5 3 9 12 9 4 3 3 5 4 358 357 7 16 10 350 333 323 317 315 318 325 329 330 331 334 339 345 349 346 341 341 345 342 335 329 323 316
120 118 117 113 108 101 92 84 78 71 64 55 45 38 30 21 18 17 14 10 10 14 14 10 16 25 24 20 24 26 21 20 17 12 11 12 7 4 8 9 8 6 4 1 1 360 354 354 3 9 4 1 1 355 341 331 327 327 328 331 331 332 335 340 345 346 344 345 350 350 344 339 330 320
122 121 121 119 110 98 85 77 73 68 58 45 39 39 35 24 18 18 16 12 11 11 10 11 19 26 23 18 17 17 19 19 15 12 11 12 11 10 9 7 6 5 4 1 359 358 355 355 0 6 4 3 6 2 351 343 338 333 333 334 334 335 337 339 340 343 342 340 343 346 346 343 336 322
124 121 121 118 107 95 81 70 64 61 54 43 35 33 30 23 16 12 9 7 6 4 4 10 20 24 24 23 18 15 19 20 17 15 14 13 13 12 8 6 7 4 3 3 0 358 359 360 360 3 5 3 1 357 350 343 339 335 335 337 337 338 340 339 338 339 336 330 331 339 341 340 338 334
125 119 110 100 92 87 79 72 66 61 55 47 37 29 24 20 16 9 1 359 359 0 1 8 20 24 27 33 29 22 22 21 16 14 14 12 12 13 8 6 8 7 4 4 1 358 359 360 359 359 360 358 354 351 346 340 334 330 332 336 337 338 340 338 336 337 330 320 321 330 334 335 339 342